Temperature
18 18 18 18 18 18 18 18 18 18 18 18 18 18 18 18 18 18 18 18 17 17 17 17 17 16 16 16 16 16 16 16 16 16 15 15 15 15
18 18 18 18 18 18 18 18 17 17 17 18 18 18 18 18 18 17 17 17 17 17 17 17 17 16 16 16 16 16 16 16 16 15 15 15 15 15
18 18 18 18 17 17 17 17 17 17 17 17 18 18 18 17 17 17 17 17 17 17 17 17 17 16 16 16 16 16 16 15 15 15 15 15 15 15
17 17 17 17 17 17 17 17 17 17 17 17 17 17 17 17 17 17 17 16 16 16 16 16 16 16 16 16 16 16 15 15 15 15 15 15 15 15
17 17 17 17 17 17 17 17 17 17 17 16 17 17 17 16 16 16 16 16 16 16 16 16 16 16 16 16 15 15 15 15 15 15 15 15 15 15
17 16 16 16 17 17 16 16 16 16 16 16 16 16 16 16 16 16 16 16 16 15 16 16 16 16 15 15 15 15 15 15 15 15 14 14 14 14
16 16 16 16 16 16 16 16 16 16 16 15 15 15 15 15 15 15 15 15 15 15 15 15 15 15 15 15 15 15 15 15 14 14 14 14 14 14
16 16 15 15 15 15 15 15 15 15 15 15 15 14 15 15 15 15 14 14 14 15 14 14 14 14 14 14 14 14 14 14 14 14 14 14 14 14
15 15 15 15 15 15 15 15 15 14 14 14 14 14 14 14 14 14 14 14 14 14 14 14 14 14 14 14 14 13 13 13 13 13 13 13 13 13
15 15 15 14 14 14 14 14 14 14 14 14 13 13 13 13 13 13 13 13 13 13 13 13 13 13 13 13 13 13 13 13 12 12 12 12 12 12
14 14 14 14 14 14 14 13 13 13 13 13 13 13 13 13 13 13 13 13 12 12 12 12 12 12 12 12 12 12 12 12 12 12 12 11 11 11
14 13 13 13 13 13 13 13 13 12 12 12 12 12 12 12 12 12 12 12 11 11 11 11 11 11 11 11 11 11 11 11 11 11 11 11 11 11
13 13 12 12 12 12 12 12 12 12 12 12 12 11 11 11 11 11 11 11 11 11 11 11 10 10 10 10 11 11 11 11 11 10 10 10 10 10
12 12 12 12 12 12 12 11 11 11 11 11 11 11 11 11 11 10 10 10 10 10 10 10 10 10 10 10 10 10 10 10 10 10 10 10 9 9
12 12 12 11 11 11 11 11 10 10 10 10 10 10 10 10 10 10 10 10 10 10 10 10 9 9 9 9 9 9 9 9 9 9 9 9 9 9
11 11 11 11 11 10 10 10 10 10 9 9 9 9 9 9 9 9 9 9 9 9 9 9 9 9 9 9 9 9 9 8 8 8 8 8 8 8
10 10 10 10 10 10 10 9 9 9 9 9 9 9 9 9 9 9 8 9 8 8 8 8 8 8 8 8 8 8 8 8 8 8 8 7 7 7
10 10 9 9 9 9 9 9 8 8 8 8 8 8 8 8 8 8 8 8 8 8 8 8 8 8 8 8 8 7 7 7 7 7 7 7 7 7
9 9 8 8 8 8 8 8 8 8 8 8 8 8 8 8 8 8 8 8 8 8 7 7 7 7 7 7 7 7 7 7 7 7 6 6 6 6
8 8 8 8 7 7 7 7 7 7 7 7 7 7 7 7 7 7 7 7 7 7 7 7 7 7 6 6 6 6 6 6 6 6 6 6 6 6
8 8 7 7 7 7 7 7 7 6 6 6 6 6 7 7 7 7 7 7 7 7 6 6 6 6 6 6 6 6 6 6 6 6 6 6 5 5
7 7 7 7 7 6 6 6 6 6 6 6 6 6 6 6 6 6 6 6 6 6 6 6 6 6 6 6 6 6 6 6 6 6 6 5 5 5
7 7 6 6 6 6 6 6 6 5 5 5 5 5 5 6 6 6 6 6 6 5 5 5 5 5 6 6 6 6 6 5 5 5 5 5 5 5
Wind_Speed
6 6 6 5 5 5 4 4 5 5 5 4 3 2 3 3 6 9 9 14 17 18 18 18 18 17 17 17 17 17 17 17 17 17 17 18 17 17
5 5 5 5 4 4 4 4 4 5 4 3 3 3 2 3 4 5 7 10 14 16 17 17 17 17 17 17 17 17 17 16 16 16 16 17 17 17
5 5 5 5 4 4 4 3 4 4 6 5 3 3 2 2 1 4 5 6 8 14 15 16 16 16 16 16 17 17 17 16 16 15 15 15 15 15
4 4 4 4 3 4 4 4 4 4 4 6 4 3 3 3 2 3 4 5 5 9 14 16 16 16 15 15 15 15 15 15 15 15 14 15 15 15
2 2 3 3 3 3 4 4 3 4 3 4 4 3 3 3 2 3 3 2 5 6 9 12 13 14 14 14 14 14 14 13 14 14 15 15 14 14
2 2 3 3 4 4 3 3 3 3 3 2 3 3 2 3 2 2 3 2 4 5 3 4 8 12 13 13 13 13 13 13 13 13 14 14 14 14
2 3 3 5 5 4 3 3 3 2 2 1 2 2 2 2 2 2 3 3 4 3 1 1 2 3 5 8 10 11 12 12 12 12 13 13 14 14
3 3 3 4 4 4 5 6 5 3 2 2 2 2 3 3 2 3 3 3 3 3 2 2 1 1 2 2 5 8 10 11 11 11 11 11 12 14
4 4 4 5 5 3 4 5 6 6 4 2 2 3 3 4 3 3 3 3 3 3 3 2 2 2 1 0 1 3 5 7 8 9 10 10 10 11
6 6 5 6 7 5 4 5 5 7 6 4 3 4 4 4 3 3 3 3 2 3 3 2 3 3 3 1 2 2 2 3 5 6 7 8 9 10
6 7 6 6 9 8 5 5 5 4 6 7 6 6 7 8 6 4 4 3 3 3 3 2 2 3 2 1 1 2 3 4 4 4 5 6 7 7
5 6 9 8 9 9 6 5 5 4 4 4 4 4 5 6 8 5 4 3 3 3 4 3 2 3 2 2 1 1 2 3 4 4 4 4 5 4
5 5 5 9 9 9 7 5 4 3 2 3 3 4 4 4 5 5 4 2 2 2 4 3 3 3 2 3 2 1 1 1 2 3 3 3 4 2
4 4 4 7 7 7 6 7 7 5 3 3 4 4 4 4 3 3 4 3 1 0 3 4 3 3 3 3 3 2 2 1 1 1 1 3 3 4
4 5 5 5 4 5 6 7 7 5 5 5 5 4 4 4 4 3 4 3 4 4 5 4 3 4 3 3 3 3 2 2 2 2 2 2 2 2
3 3 3 4 5 6 7 7 6 6 5 5 5 5 4 4 5 5 4 4 4 3 5 6 5 3 3 4 3 3 3 3 3 3 3 3 3 3
3 3 4 5 6 6 5 6 6 6 6 5 5 5 5 5 4 4 4 4 4 5 5 4 6 5 3 3 3 4 4 3 3 3 3 3 3 3
5 5 6 6 6 6 6 6 6 6 6 5 5 5 5 4 4 4 4 4 5 5 5 5 5 5 4 3 5 5 4 4 4 4 3 3 3 3
6 6 6 6 6 6 5 5 5 5 5 5 5 5 5 5 4 4 4 4 4 4 4 4 4 5 6 6 4 5 4 4 4 4 3 3 3 3
6 6 6 6 6 6 6 6 5 5 5 5 5 5 5 5 5 5 5 5 5 4 5 4 4 4 5 5 4 4 4 4 4 4 4 3 3 2
6 6 6 5 6 6 5 5 5 5 6 5 5 6 5 5 5 5 5 7 5 5 5 5 4 6 4 4 4 3 3 5 4 3 3 4 4 3
6 6 5 5 5 5 5 5 5 5 6 6 6 6 6 6 6 6 5 5 5 5 5 5 5 4 4 5 5 4 4 4 5 5 4 3 2 2
5 5 5 6 6 5 5 6 7 7 6 6 6 6 7 6 5 5 6 6 6 6 6 6 6 5 5 5 5 4 5 5 4 3 3 5 4 4
Wind_Direction
248 251 252 262 264 261 257 239 238 258 264 261 262 244 245 229 205 201 201 205 209 213 217 221 225 228 230 231 231 232 234 235 235 236 238 240 242 243
251 254 252 258 261 259 260 252 235 233 254 263 273 273 262 254 223 224 219 207 211 216 220 223 225 226 226 227 228 230 232 233 234 235 237 239 241 241
259 260 262 261 262 265 261 257 248 233 247 262 264 278 267 264 242 253 240 212 215 219 220 223 225 226 226 226 228 229 230 231 233 235 236 237 238 239
273 280 289 287 276 272 271 266 261 249 241 259 272 274 281 268 248 253 258 245 239 225 220 223 225 225 224 224 227 228 229 230 231 233 235 239 239 238
293 304 313 320 313 294 282 283 279 275 257 252 269 278 282 293 289 283 283 280 273 248 222 222 223 222 223 224 226 228 229 230 231 232 233 237 238 238
356 9 12 9 351 332 314 319 307 300 292 279 276 284 282 289 301 295 300 295 279 272 260 220 217 220 223 224 225 226 226 227 229 231 233 234 237 238
5 16 34 35 29 13 359 355 341 329 328 323 302 303 311 325 319 296 295 294 280 270 269 250 208 210 223 229 230 228 227 227 227 229 233 237 239 241
14 8 24 35 30 42 45 39 31 17 359 350 337 322 324 323 327 323 315 314 300 326 315 290 279 244 195 209 218 217 223 228 231 233 236 240 244 247
21 16 20 13 23 35 52 54 42 35 28 4 352 346 345 351 347 340 337 325 311 317 324 313 346 347 338 31 145 184 214 228 233 235 236 241 246 252
40 31 31 22 18 16 43 52 49 40 34 38 33 14 14 0 354 335 318 318 316 352 3 325 339 333 334 71 120 140 189 236 242 243 242 245 250 255
47 43 38 35 16 26 48 52 49 44 48 56 60 51 41 30 21 12 2 359 342 348 3 337 333 325 308 298 317 254 262 267 263 258 254 257 260 261
55 51 46 42 30 33 42 44 39 22 25 30 38 33 37 34 31 23 8 4 352 349 356 350 341 342 322 325 351 337 313 306 291 279 282 292 289 272
57 50 41 42 41 36 37 35 14 2 9 30 41 35 34 32 28 27 22 12 8 343 345 346 337 334 317 312 311 316 349 345 326 306 295 300 301 282
61 58 55 46 45 43 40 23 16 18 22 26 31 26 22 19 13 11 19 22 24 358 8 353 340 336 327 316 317 325 330 348 349 346 337 323 307 299
61 60 53 42 43 52 48 37 29 23 23 27 25 17 9 2 0 358 2 359 0 14 15 10 352 339 331 327 330 334 334 341 360 6 2 348 321 301
57 74 65 39 39 45 41 38 36 30 26 24 19 12 7 13 15 8 1 356 2 6 14 13 5 354 348 338 340 342 347 348 356 2 356 344 340 344
23 56 54 48 46 42 44 42 36 24 20 18 21 15 13 13 12 8 2 359 360 358 357 355 359 4 26 360 356 355 352 352 356 352 341 334 337 347
53 57 50 46 44 38 35 34 34 26 12 16 18 12 6 4 4 3 4 2 357 357 0 359 360 356 349 21 21 360 350 344 343 340 336 332 331 342
60 56 49 43 38 34 30 30 29 22 10 14 14 6 359 359 359 355 1 355 347 349 352 356 3 0 348 341 345 351 335 331 339 342 339 328 319 327
54 53 48 42 35 27 22 22 22 17 8 7 11 1 354 354 355 352 355 352 345 346 351 3 6 356 336 322 315 318 338 337 337 333 331 327 321 325
51 48 43 40 36 27 16 13 15 14 6 4 3 353 346 347 351 348 352 351 348 350 353 352 342 331 311 313 317 328 329 333 323 310 318 322 323 324
45 44 39 37 32 21 14 9 9 9 3 2 357 348 345 347 349 349 351 351 348 349 345 337 336 335 329 327 324 327 336 337 343 348 342 318 303 317
47 40 35 31 24 14 13 12 12 8 3 359 351 343 342 343 344 347 348 351 351 350 346 341 338 334 328 321 324 331 338 339 337 343 340 334 312 297
Height
1548 1548 1548 1548 1548 1548 1548 1549 1549 1548 1547 1547 1548 1547 1547 1547 1546 1547 1546 1546 1547 1547 1547 1547 1547 1548 1548 1548 1548 1549 1549 1550 1551 1552 1552 1553 1554 1555
1545 1545 1545 1544 1544 1544 1544 1544 1544 1545 1543 1543 1543 1543 1543 1542 1542 1542 1542 1542 1542 1542 1542 1542 1542 1542 1542 1542 1542 1543 1544 1544 1545 1546 1546 1547 1548 1549
1541 1541 1541 1540 1540 1540 1540 1540 1540 1540 1539 1539 1540 1539 1539 1538 1537 1537 1538 1537 1537 1537 1537 1537 1537 1537 1537 1537 1537 1538 1538 1538 1539 1540 1540 1541 1542 1543
1538 1538 1537 1537 1536 1536 1536 1535 1535 1536 1536 1535 1535 1535 1535 1534 1534 1533 1533 1533 1533 1532 1532 1532 1532 1532 1532 1532 1532 1532 1532 1533 1533 1534 1534 1535 1536 1537
1536 1535 1534 1534 1533 1532 1532 1531 1531 1531 1531 1531 1530 1531 1531 1531 1530 1530 1529 1529 1529 1528 1528 1527 1527 1527 1527 1527 1527 1527 1527 1527 1528 1528 1528 1529 1530 1530
1533 1533 1532 1531 1530 1529 1529 1528 1528 1528 1528 1527 1527 1527 1527 1527 1526 1526 1525 1525 1525 1525 1524 1523 1523 1522 1522 1522 1522 1521 1521 1522 1522 1522 1522 1523 1524 1524
1531 1531 1530 1529 1528 1527 1526 1525 1525 1525 1525 1524 1524 1524 1523 1523 1523 1523 1522 1521 1521 1521 1520 1519 1518 1518 1517 1517 1517 1516 1516 1516 1516 1516 1517 1517 1518 1518
1529 1529 1528 1528 1527 1526 1525 1524 1523 1523 1522 1522 1522 1521 1521 1521 1521 1520 1519 1518 1517 1518 1517 1516 1515 1514 1513 1513 1512 1512 1512 1511 1511 1511 1511 1511 1511 1512
1527 1527 1527 1526 1525 1524 1523 1522 1522 1521 1521 1521 1520 1519 1519 1518 1518 1517 1516 1515 1514 1514 1513 1512 1512 1511 1510 1509 1509 1508 1508 1507 1506 1506 1506 1506 1505 1505
1527 1526 1526 1525 1524 1523 1522 1521 1521 1520 1520 1519 1519 1518 1517 1516 1516 1515 1514 1513 1512 1512 1511 1510 1509 1508 1507 1507 1506 1505 1504 1503 1502 1502 1501 1501 1500 1499
1526 1526 1525 1524 1524 1523 1522 1521 1520 1520 1519 1519 1518 1517 1516 1515 1514 1514 1512 1511 1510 1510 1509 1508 1506 1505 1504 1503 1503 1502 1501 1500 1499 1498 1497 1496 1495 1495
1526 1526 1525 1524 1524 1523 1521 1520 1519 1519 1519 1519 1518 1517 1516 1515 1514 1513 1512 1511 1509 1509 1508 1507 1505 1503 1502 1501 1500 1499 1498 1497 1496 1495 1494 1493 1492 1490
1526 1526 1526 1525 1524 1523 1522 1521 1520 1520 1519 1519 1518 1517 1516 1515 1514 1513 1512 1511 1510 1508 1507 1506 1504 1503 1502 1500 1498 1497 1496 1494 1493 1492 1491 1490 1488 1488
1527 1527 1526 1525 1524 1523 1523 1522 1521 1521 1520 1519 1518 1517 1516 1515 1514 1513 1512 1511 1510 1508 1507 1505 1503 1502 1500 1498 1497 1496 1494 1493 1491 1490 1488 1487 1486 1485
1528 1528 1527 1526 1525 1525 1524 1523 1522 1521 1520 1520 1519 1518 1517 1516 1514 1513 1511 1510 1509 1507 1506 1504 1503 1501 1499 1498 1496 1494 1493 1491 1489 1488 1486 1485 1483 1482
1529 1529 1529 1528 1527 1526 1525 1524 1523 1523 1522 1521 1520 1519 1518 1516 1515 1513 1511 1509 1508 1507 1505 1504 1502 1500 1498 1496 1495 1493 1492 1490 1488 1486 1484 1483 1481 1480
1531 1530 1530 1529 1528 1528 1527 1526 1525 1524 1523 1523 1521 1520 1519 1517 1515 1514 1512 1510 1508 1506 1505 1503 1501 1499 1497 1496 1494 1492 1490 1488 1486 1484 1482 1480 1479 1477
1533 1532 1531 1531 1530 1530 1529 1528 1527 1526 1525 1524 1522 1521 1520 1518 1516 1514 1512 1510 1509 1507 1505 1503 1500 1498 1497 1495 1494 1491 1489 1487 1485 1483 1481 1479 1477 1475
1534 1534 1533 1533 1532 1532 1531 1530 1529 1527 1526 1525 1523 1522 1520 1519 1517 1515 1513 1511 1509 1507 1505 1503 1500 1498 1495 1493 1492 1491 1488 1486 1483 1481 1479 1477 1475 1473
1536 1536 1536 1535 1534 1533 1532 1531 1530 1528 1527 1525 1524 1522 1521 1519 1517 1515 1513 1511 1509 1507 1505 1502 1500 1498 1496 1494 1491 1489 1488 1485 1482 1479 1477 1475 1473 1471
1538 1538 1537 1536 1535 1534 1533 1532 1531 1529 1527 1526 1524 1522 1521 1519 1517 1515 1513 1511 1509 1506 1504 1502 1500 1498 1495 1493 1491 1488 1486 1484 1481 1479 1476 1473 1471 1469
1540 1539 1539 1538 1537 1535 1534 1533 1531 1529 1527 1525 1524 1522 1521 1519 1517 1515 1513 1511 1508 1506 1504 1501 1499 1496 1494 1491 1489 1486 1484 1482 1479 1477 1475 1473 1470 1467
1541 1541 1540 1539 1537 1536 1534 1533 1531 1529 1527 1525 1523 1521 1520 1518 1517 1515 1513 1510 1508 1506 1503 1500 1498 1495 1493 1490 1488 1485 1483 1480 1478 1475 1474 1472 1470 1468